JR0ZFO-13 Weather Reports


time (UTC)temp
C
wind
direction
speed
KPH
gust
KPH
rain 1hr
cm
rain 24hr
cm
rain mn
cm
humidity
%
barometer
mb
20260504185823 5 58 0.0 0.0 0.00 2.39 0.00 86 1020.3
20260504185344 5 58 0.0 0.0 0.00 2.39 0.00 87 1020.2
20260504184819 5 58 0.0 0.0 0.00 2.39 0.00 86 1020.3
20260504184338 5 58 0.0 0.0 0.00 2.39 0.00 86 1020.2
20260504183814 5 58 0.0 0.0 0.00 2.39 0.00 86 1020.1
20260504183312 5 58 0.0 0.0 0.00 2.39 0.00 85 1020.1
20260504182832 5 58 0.0 0.0 0.00 2.39 0.00 85 1020.0
20260504182330 5 58 0.0 0.0 0.00 2.39 0.00 85 1019.9
20260504181828 5 58 0.0 0.0 0.00 2.49 0.00 83 1019.8
20260504181326 5 58 0.0 0.0 0.00 2.49 0.00 82 1019.7
20260504180846 6 58 0.0 0.0 0.00 2.49 0.00 82 1019.6
20260504180327 6 58 0.0 0.0 0.00 2.49 0.00 82 1019.6
20260504175826 6 58 0.0 0.0 0.00 2.49 0.00 81 1019.5
20260504175346 6 58 0.0 0.0 0.00 2.49 0.00 80 1019.4
20260504174823 6 58 0.0 1.6 0.00 2.49 0.00 79 1019.3
20260504174321 6 58 0.0 1.6 0.00 2.49 0.00 78 1019.2
20260504173819 7 58 0.0 1.6 0.00 2.49 0.00 77 1019.2
20260504173317 7 55 0.0 0.0 0.00 2.49 0.00 76 1019.2
20260504172814 7 55 0.0 1.6 0.00 2.49 0.00 76 1019.1
20260504172334 7 55 0.0 1.6 0.00 2.49 0.00 75 1019.1
20260504171832 7 55 0.0 1.6 0.00 3.51 0.00 75 1019.1
20260504171332 7 55 0.0 4.8 0.00 3.51 0.00 74 1019.0
20260504170831 7 55 1.6 4.8 0.00 3.51 0.00 74 1019.0
20260504170330 7 56 0.0 6.4 0.00 3.51 0.00 74 1018.9
20260504160315 8 86 6.4 16.1 0.00 3.81 0.00 76 1018.4
20260504150845 7 49 8.0 22.5 0.00 3.81 0.76 78 1018.3
20260504150322 7 330 9.7 19.3 0.00 3.81 0.76 78 1018.3
20260504141327 8 53 12.9 29.0 0.00 3.81 0.76 79 1017.4
20260504140825 8 116 11.3 29.0 0.00 3.81 0.76 79 1017.2
20260504140327 7 42 14.5 33.8 0.00 3.81 0.76 79 1017.0
20260504130347 9 48 17.7 46.7 0.00 3.91 0.76 78 1015.9
20260504110317 11 55 16.1 40.2 0.00 4.19 0.76 76 1011.5
20260504100317 12 46 11.3 32.2 0.00 4.60 0.76 73 1009.8
20260504081824 17 303 4.8 14.5 0.00 4.60 0.76 52 1006.9
20260504081323 17 34 1.6 22.5 0.00 4.60 0.76 54 1006.8
20260504080821 17 85 9.7 25.7 0.00 4.60 0.76 55 1006.6
20260504080325 17 52 8.0 27.4 0.00 4.60 0.76 55 1006.0
20260504070322 18 46 4.8 14.5 0.00 4.60 0.76 59 1004.3
20260504050331 18 91 14.5 25.7 0.00 4.60 0.76 68 1002.4
20260504045830 18 15 14.5 27.4 0.00 4.60 0.76 69 1002.4
20260504045350 18 30 11.3 29.0 0.00 4.60 0.76 70 1002.3
20260504044827 18 74 16.1 29.0 0.00 4.60 0.76 70 1002.4
20260504044324 18 173 19.3 27.4 0.00 4.60 0.76 70 1002.4
20260504043823 18 103 11.3 29.0 0.00 4.60 0.76 70 1002.3
20260504043321 18 21 17.7 29.0 0.00 4.60 0.76 70 1002.3
20260504042819 19 99 17.7 29.0 0.00 4.60 0.76 70 1002.3
20260504042317 19 119 17.7 27.4 0.00 4.60 0.76 70 1002.2
20260504041838 19 31 17.7 27.4 0.00 4.60 0.76 71 1002.1
20260504041314 18 53 16.1 32.2 0.00 4.60 0.76 73 1001.9
20260504040815 18 86 16.1 32.2 0.00 4.60 0.76 73 1001.7
20260504040314 18 49 14.5 32.2 0.00 4.60 0.76 72 1001.8
20260504035812 19 24 14.5 32.2 0.00 4.60 0.76 72 1001.4
20260504035331 19 41 20.9 32.2 0.00 4.60 0.76 70 1001.5
20260504034830 20 332 14.5 32.2 0.00 4.60 0.76 71 1001.5
20260504034329 20 30 14.5 25.7 0.00 4.60 0.76 72 1001.6
20260504033828 20 304 11.3 30.6 0.00 4.60 0.76 72 1001.5
20260504033327 20 46 12.9 27.4 0.00 4.60 0.76 72 1001.4
20260504032825 20 82 12.9 29.0 0.00 4.60 0.76 73 1001.5
20260504032323 20 43 17.7 29.0 0.00 4.60 0.76 71 1001.5
20260504031821 20 7 12.9 27.4 0.00 4.60 0.76 72 1001.7
20260504031339 20 33 16.1 27.4 0.00 4.60 0.76 72 1001.7
20260504030817 20 56 9.7 25.7 0.00 4.60 0.76 74 1001.8
20260504030315 20 18 11.3 24.1 0.00 4.60 0.76 72 1001.8
20260504025812 20 77 9.7 30.6 0.00 4.60 0.76 73 1001.8
20260504025313 20 125 17.7 30.6 0.00 4.60 0.76 71 1001.7
20260504024853 20 338 8.0 25.7 0.00 4.60 0.76 73 1001.8
20260504024331 20 15 11.3 22.5 0.00 4.60 0.76 74 1001.8
20260504023813 20 91 14.5 24.1 0.00 4.60 0.76 74 1001.7
20260504023349 20 51 8.0 20.9 0.00 4.60 0.76 74 1001.9
20260504022828 20 84 6.4 16.1 0.00 4.60 0.76 75 1002.0
20260504022329 20 311 9.7 20.9 0.00 4.60 0.76 72 1002.1
20260504021828 20 83 9.7 22.5 0.00 4.60 0.76 74 1002.1
20260504021326 20 23 12.9 22.5 0.00 4.60 0.76 73 1002.2
20260504020824 20 343 11.3 20.9 0.00 4.60 0.76 73 1002.3
20260504020322 20 65 8.0 25.7 0.00 4.60 0.76 74 1002.5
20260504015820 20 330 11.3 25.7 0.00 4.60 0.76 73 1002.2
20260504015317 20 42 9.7 22.5 0.00 4.60 0.76 74 1002.4
20260504014837 20 24 4.8 20.9 0.00 4.60 0.76 74 1002.3
20260504014314 20 131 6.4 20.9 0.00 4.60 0.76 74 1002.3
20260504013814 20 347 6.4 22.5 0.00 4.60 0.76 74 1002.5
20260504013312 20 20 6.4 22.5 0.00 4.60 0.76 75 1002.4
20260504012831 20 36 8.0 20.9 0.00 4.60 0.76 75 1002.7
20260504012330 20 10 9.7 20.9 0.00 4.60 0.76 75 1002.7
20260504011849 20 17 4.8 17.7 0.00 4.60 0.76 76 1003.0
20260504011347 19 69 9.7 20.9 0.00 4.60 0.76 76 1003.0
20260504010824 18 65 6.4 20.9 0.00 4.60 0.76 77 1003.1
20260504010322 18 31 8.0 20.9 0.00 4.60 0.76 78 1003.4
20260504005821 18 75 9.7 20.9 0.00 4.60 0.76 78 1003.5
20260504005323 18 27 6.4 22.5 0.00 4.60 0.76 79 1003.2
20260504004822 18 19 11.3 22.5 0.00 4.60 0.76 78 1003.5
20260504004321 18 261 3.2 16.1 0.00 4.60 0.76 80 1003.4
20260504003841 18 44 8.0 24.1 0.00 4.60 0.76 80 1003.3
20260504003319 18 128 11.3 24.1 0.00 4.60 0.76 79 1003.1
20260504002838 18 2 6.4 20.9 0.00 4.60 0.76 79 1003.2
20260504002336 18 68 9.7 20.9 0.00 4.60 0.76 81 1003.1
20260504001835 18 60 8.0 19.3 0.00 4.60 0.76 82 1003.0
20260504001332 17 87 6.4 17.7 0.00 4.60 0.76 83 1003.0
20260504000830 17 51 9.7 17.7 0.00 4.60 0.76 83 1003.0
20260504000349 17 22 8.0 20.9 0.00 4.60 0.76 83 1003.0
20260503235827 17 37 8.0 20.9 0.00 4.60 0.76 83 1002.9
20260503235326 17 39 6.4 17.7 0.00 4.60 0.76 84 1002.8
20260503234824 17 50 8.0 17.7 0.00 4.60 0.76 85 1003.0
20260503234322 17 44 4.8 24.1 0.00 4.60 0.76 85 1003.0
20260503233822 16 126 12.9 24.1 0.00 4.60 0.76 85 1003.1
20260503233321 16 58 11.3 19.3 0.00 4.60 0.76 86 1003.2
20260503232820 16 133 9.7 16.1 0.00 4.60 0.76 86 1003.1
20260503232316 16 58 4.8 12.9 0.00 4.60 0.76 87 1003.1
20260503231813 16 42 6.4 14.5 0.00 4.60 0.76 88 1003.2
20260503231333 16 73 8.0 16.1 0.00 4.60 0.76 88 1003.1
20260503230851 16 105 9.7 16.1 0.00 4.60 0.76 88 1002.8
20260503230313 16 42 4.8 19.3 0.00 4.60 0.76 90 1003.0
20260503225812 16 21 9.7 19.3 0.00 4.60 0.76 90 1003.0
20260503225352 16 35 6.4 14.5 0.00 4.60 0.76 91 1002.7
20260503224830 16 57 1.6 12.9 0.00 4.60 0.76 92 1002.5
20260503224327 16 354 6.4 12.9 0.00 4.60 0.76 93 1002.5
20260503223825 15 70 4.8 16.1 0.00 4.60 0.76 93 1002.4
20260503223323 15 49 11.3 16.1 0.00 4.60 0.76 93 1002.5
20260503222823 15 44 6.4 14.5 0.00 4.60 0.76 94 1002.5
20260503222321 15 58 1.6 11.3 0.00 4.60 0.76 94 1002.7
20260503221821 15 101 4.8 9.7 0.10 4.60 0.76 95 1002.6
20260503221319 15 78 4.8 9.7 0.10 4.60 0.76 95 1002.5
20260503220818 15 32 1.6 4.8 0.20 4.60 0.76 95 1002.6
20260503220317 15 13 1.6 4.8 0.30 4.60 0.76 95 1002.2
20260503215815 15 39 1.6 4.8 0.41 4.60 0.76 95 1002.2
20260503215335 15 47 0.0 3.2 0.41 4.60 0.76 95 1002.2
20260503214833 15 46 1.6 3.2 0.51 4.60 0.76 95 1002.1
20260503214352 15 33 0.0 4.8 0.61 4.60 0.76 95 1002.1
20260503213827 15 61 1.6 4.8 0.79 4.60 0.76 94 1001.9
20260503213325 15 33 1.6 3.2 0.79 4.60 0.76 94 1002.2
20260503212824 15 6 0.0 4.8 0.89 4.60 0.76 95 1002.1
20260503212327 15 32 1.6 4.8 1.19 4.60 0.76 95 1002.1
20260503211826 15 330 1.6 1.6 1.30 4.50 0.74 94 1002.3
20260503211324 15 221 0.0 3.2 1.70 4.50 0.74 95 1002.6
20260503210821 15 254 0.0 1.6 1.91 4.39 0.71 94 1002.2
20260503210321 15 53 0.0 1.6 1.91 4.29 0.71 94 1002.2
20260503205819 15 53 0.0 3.2 1.91 4.19 0.69 94 1002.2
20260503205319 15 53 1.6 3.2 1.91 4.19 0.69 95 1001.9
20260503204840 15 49 0.0 3.2 1.80 4.09 0.66 95 1001.9
20260503204318 15 169 0.0 3.2 1.70 3.91 0.61 95 1001.8
20260503203817 15 91 0.0 3.2 1.60 3.81 0.61 95 1002.1
20260503203315 15 92 0.0 8.0 1.60 3.81 0.61 95 1002.1
20260503202813 15 58 3.2 8.0 1.50 3.71 0.58 94 1001.6
20260503202312 15 65 1.6 4.8 1.19 3.40 0.51 94 1001.8
20260503201812 15 63 1.6 3.2 0.99 3.20 0.48 94 1002.0
20260503201332 15 5 0.0 4.8 0.61 2.79 0.41 93 1002.2
20260503200814 15 18 0.0 4.8 0.30 2.49 0.33 93 1002.0
20260503200312 15 41 0.0 4.8 0.20 2.39 0.33 93 1001.6
20260503195830 15 249 0.0 1.6 0.10 2.31 0.30 93 1001.2
20260503195329 15 228 0.0 1.6 0.10 2.31 0.30 93 1001.1
20260503194847 15 275 0.0 1.6 0.10 2.31 0.30 93 1000.7
20260503194324 15 56 0.0 1.6 0.00 2.21 0.28 93 1000.7
20260503193823 15 56 0.0 0.0 0.00 2.21 0.28 93 1000.6
20260503193320 15 56 0.0 0.0 0.00 2.21 0.28 92 1000.5
20260503192818 15 56 0.0 0.0 0.00 2.21 0.28 92 1000.4
20260503192317 15 56 0.0 0.0 0.00 2.21 0.28 92 1000.4
20260503191814 15 56 0.0 0.0 0.00 2.21 0.28 92 1000.4
20260503191313 15 56 0.0 0.0 0.00 2.21 0.28 92 1000.5
20260503190832 15 56 0.0 1.6 0.00 2.21 0.28 92 1000.2
20260503190351 15 56 0.0 3.2 0.00 2.21 0.28 92 1000.3